#timestamp,LO_Frequency,Hit,StdDev 
1685473215.2,286046999.2,P
1685473235.0,286046999.4,N
1685473235.9,286046999.4,N
1685473255.7,286046999.2,N
1685473275.6,286046999.5,N
1685473295.4,286046996.5,Y
1685473315.3,286046999.1,P
1685473335.1,286046996.9,P
1685473336.0,286046996.9,N
1685473355.8,286046999.2,N
1685473375.7,286046996.7,N
1685473395.5,286046995.4,Y
1685473415.4,286046996.5,P
1685473435.2,286046999.5,N
1685473455.0,286046996.5,N
1685473455.9,286046996.5,N
1685473475.8,286046996.6,N
1685473495.6,286046997.4,N
1685473515.4,286046997.4,N
1685473535.3,286046994.9,Y
1685473555.1,286046999.2,P
1685473575.9,286046998.7,N
1685473595.7,286047000.3,N
1685473615.5,286047001.0,N
1685473635.4,286046998.1,N
1685473655.2,286046999.2,N
1685473675.0,286046999.6,N
1685473675.9,286046999.6,N
1685473695.8,286046999.1,N
1685473715.6,286046999.0,N
1685473735.5,286046998.1,N
1685473755.3,286047000.8,N
1685473775.1,286046998.2,N
1685473795.9,286046998.9,N
1685473815.7,286046999.3,N
1685473835.5,286046998.7,N
1685473855.4,286046998.5,N
1685473875.2,286046999.6,N
1685473895.1,286046999.6,N
1685473896.0,286046999.6,N
1685473915.8,286046999.3,N
1685473935.6,286046999.3,N
1685473955.5,286046999.5,N
1685473975.3,286046999.4,N
1685473995.1,286046996.9,Y
1685474015.9,286046998.3,P
1685474035.7,286046998.7,N
1685474055.6,286046999.4,N
1685474075.4,286046998.4,Y
1685474095.2,286046998.7,P
1685474115.1,286046996.6,P
1685474116.0,286046996.6,P
1685474135.8,286046996.6,Y
1685474155.7,286047000.0,P
1685474175.5,286047000.1,N
1685474195.3,286047000.8,N
1685474215.2,286047001.1,N
1685474235.0,286047000.4,N
1685474235.9,286047000.4,N
1685474255.8,286047000.4,N
1685474275.6,286046999.7,N
1685474295.4,286047002.7,N
1685474315.3,286046999.3,N
1685474335.1,286046999.0,N
1685474355.8,286046998.3,N
1685474375.7,286046998.6,N
1685474395.5,286046999.0,N
1685474415.3,286046998.6,N
1685474435.2,286046998.9,N
1685474455.0,286047001.2,N
1685474455.9,286047001.2,N
1685474475.8,286046998.2,N
1685474495.6,286047000.8,N
1685474515.4,286047001.0,N
1685474535.3,286047000.7,N
1685474555.1,286047000.9,N
1685474575.9,286047000.2,N
1685474595.7,286047002.7,N
1685474615.5,286047002.0,N
1685474635.4,286046998.1,N
1685474655.2,286047000.2,N
1685474675.0,286047000.8,N
1685474675.9,286047000.8,N
1685474695.8,286047000.8,N
1685474715.6,286047001.2,N
1685474735.5,286046998.7,N
1685474755.3,286046998.5,N
1685474775.1,286046998.3,N
1685474795.9,286046998.3,N
1685474815.7,286046998.9,N
1685474835.5,286046996.9,N
1685474855.4,286046999.6,N
1685474875.2,286046996.8,N
1685474895.1,286046996.5,N
1685474896.0,286046996.5,N
1685474915.8,286046999.1,N
1685474935.6,286046999.1,N
1685474955.5,286046999.3,N
1685474975.3,286046999.4,N
1685474995.1,286046996.6,N
1685475015.9,286046999.4,N
1685475035.7,286046999.1,N
1685475055.6,286046997.4,N
1685475075.4,286046997.6,N
1685475095.2,286046995.7,N
1685475115.1,286046996.3,N
1685475116.0,286046996.3,N
1685475135.8,286046994.9,N
1685475155.6,286046997.2,N
1685475175.5,286046996.9,N
1685475195.3,286046997.8,N
1685475215.2,286046997.7,N
1685475235.9,286046997.4,N
1685475255.7,286046996.8,N
1685475275.6,286046998.4,N
1685475295.4,286046998.9,N
1685475315.2,286046998.3,N
1685475335.1,286046999.4,N
1685475336.0,286046999.4,N
1685475355.8,286046999.2,N
1685475375.7,286046997.2,N
1685475395.5,286046995.0,Y
1685475415.3,286046999.1,P
1685475435.2,286046999.6,N
1685475455.0,286046998.1,N
1685475455.9,286046998.1,N
1685475475.7,286047001.1,N
1685475495.6,286046999.0,N
1685475515.4,286046998.9,N
1685475535.3,286046996.5,Y
1685475555.1,286046998.8,P
1685475575.8,286046998.3,P
1685475595.7,286046998.7,P
1685475615.5,286047001.2,Y
1685475635.4,286047001.1,P
1685475655.2,286047000.5,N
1685475675.0,286047002.3,N
1685475675.9,286047002.3,N
1685475695.8,286047002.7,N
1685475715.6,286047000.2,N
1685475735.4,286047004.4,Y
1685475755.3,286047000.2,P
1685475775.1,286047001.0,N
1685475795.9,286046998.3,P
1685475815.7,286047000.5,N
1685475835.5,286046999.8,N
1685475855.4,286047002.7,N
1685475875.2,286047002.7,N
1685475895.0,286047000.4,N
1685475895.9,286047000.4,N
1685475915.8,286047000.6,N
1685475935.6,286047001.2,N
1685475955.5,286046998.5,N
1685475975.3,286046998.1,N
1685475995.1,286046998.9,N
1685476015.9,286046998.4,N
1685476035.7,286046998.3,N
1685476055.6,286046998.1,N
1685476075.4,286046998.6,N
1685476095.2,286046998.1,N
1685476115.1,286046998.2,N
1685476116.0,286046998.2,N
1685476135.8,286047001.1,N
1685476155.7,286046999.0,N
1685476175.5,286046998.9,N
1685476195.3,286046998.3,N
1685476215.2,286046997.0,N
1685476235.0,286046996.6,N
1685476235.9,286046996.6,N
1685476255.7,286046999.5,N
1685476275.6,286046999.2,N
1685476295.4,286046998.4,N
1685476315.3,286046998.6,N
1685476335.1,286046996.5,N
1685476355.8,286046999.6,N
1685476375.7,286046999.0,N
1685476395.5,286046998.3,N
1685476415.4,286046998.2,N
1685476435.2,286047001.1,N
1685476455.0,286047000.7,N
1685476455.9,286047000.7,N
1685476475.8,286047000.2,N
1685476495.6,286047001.0,N
1685476515.4,286047000.1,N
1685476535.3,286047001.4,N
1685476555.1,286047002.0,N
1685476575.9,286047001.9,N
1685476595.7,286047002.1,N
1685476615.5,286047002.1,N
1685476635.4,286047002.4,N
1685476655.2,286047001.8,N
1685476675.0,286047004.2,N
1685476676.0,286047004.2,N
1685476695.8,286047002.9,N
1685476715.6,286047003.2,N
1685476735.5,286047003.5,N
1685476755.3,286047003.9,N
1685476775.1,286047003.0,N
1685476795.9,286047005.4,N
